Voltar ao catálogo

FENGYUN 1C DEB

AtivoSSO
NORAD 32153·DEBRIS·🇨🇳 China

Lançado May 10, 1999 de Taiyuan Satellite Launch Center

Loading…

Próximas Passagens (próximas 24 horas)

TLE

AtualizadoSource: Space-Track

Época: Sep 14, 2026, 10:31 UTC

1 32153U 99025CSX 26257.43850680  .00000545  00000-0  12011-3 0  9997
2 32153  98.7415 115.9673 0207518 109.0829 253.2962 14.49240809 12120

Acompanhe FENGYUN 1C DEB em tempo real com AllMySat

Download on the App Store